Showing default

CARTOSAT 2F, 43111

Orbit data source: Space-Track

CARTOSAT 2F, 43111 is a payload satellite owned by ISRO (IN) in SSO that was launched on Fri, 12 Jan 2018 UTC via a PSLV-XL launch vehicle from the Sirharikota (SRI). Payload-class satellites include a variety of spacecraft equipped with specific instruments for various scientific and technological missions. These include communications satellites like Starlink; space stations such as the ISS; scientific satellites like the Hubble; Earth observation satellites from companies like Planet Labs, Umbra, and HawkEye 360; GPS; miniature CubeSats for education and research; and military/defense satellites.

Loading next visibility...
Identifier
43111, 2018-004A
Orbit
SSO
Last TLE update
11 hours ago
Origin
Manufacturer
ISRO
Mission
Operational Civil Imaging
Bus & Motor
IRS-2, AOCS
Mass
712 kg wet, 639 kg dry
Launch date (UTC)
2018-01-12 (7 years ago)
Launch vehicle
PSLV-XL
Launch site
Sirharikota (SRI)
Object type
Payload
Rocket body
Debris
Shape & HBR
Hex Cyl + 2 Pan, 8 m
Radar Cross Section
9.780 m², Large (>1 m²)

Expand to show TLE details & history

TLE from 11 hours ago
0 CARTOSAT 2F
1 43111U 18004A   25191.57280004  .00002956  17000-8  14053-3 0  9991
2 43111  97.4530 251.4824 0001640  65.2056 294.9349 15.19248546415466
Epoch: 2025-07-10T13:44Z
TLE epoch observation values (Epoch: 2025-07-10T13:44:49.923Z)
Latitude
-0.00003°
Longitude
116.53724°
Altitude
510.722 km
Speed
7.609 km/s
True Right ascension
16h 45m 55s
True Declination
0° 00' 00"
Sunlit
Object was in full shadow at epoch
Visualization orbit readout
Latitude
-52.90503°
Longitude
126.88978°
Altitude
529.203 km
Speed
7.597 km/s
Apparent Right ascension
21h 35m 35s
Apparent Declination
-61° 32' 27"
Sunlit
Object is in full shadow
Visualization observer readout
Local Sidereal Time
12:50:55
Azimuth
142.824° SSE
Elevation
-53.582°
Doppler factor
1
Orbital elements
Apogee altitude
506.208 km
Perigee altitude
503.95 km
Semi-major axis
6,883.216 km
Eccentricity
0.00016
Inclination
97.453°
RAAN
251.4824°
Arg. of periapsis
65.2056°
True anomaly
Unknown
Mean anomaly
294.9349°
Eccentric anomaly
Unknown
Mean motion
3.80063 °/min
Orbital period
94.72 mins
BSTAR
0.00014053
Loading maneuver chart data...
Loading SW <> Apogee altitude chart data...
Loading historical data...
Loading historical data...
Loading historical data...
Loading historical data...
Loading historical data...
Loading historical data...
Loading historical data...

CARTOSAT 2F Visibility forecast

Observer location: undefined°, undefined°

Span
Click to sort rows by Start time (UTC) header in descending order
Start Az.
Max El. time (UTC)
Max El. Az.
Max El.
End time (UTC)
End Az.
7 mins2025-07-11 04:05:39.939Z169.553° S2025-07-11 04:08:39.939Z189.482° SSW43.629°2025-07-11 04:12:39.939Z346.536° N
5 mins2025-07-11 17:11:39.939Z352.848° N2025-07-11 17:13:39.939Z289.445° WNW38.206°2025-07-11 17:16:39.939Z211.545° SW
|